[Date Prev][Date Next][Thread Prev][Thread Next] - [Date Index][Thread Index][Author Index]

2 Line ISS Keps 2-20



ISS
1 25544U 98067A   06050.85361111  .00013788  00000-0  96238-4 0  3855
2 25544 051.6420 070.9531 0007407 302.0856 061.3110 15.74624920414671
----
Via the sarex mailing list at AMSAT.ORG courtesy of AMSAT-NA.
To unsubscribe, send "unsubscribe sarex" to Majordomo@amsat.org



AMSAT Top AMSAT Home